GFSFLT1_con_mlcape_336.txt.gz
CAPE
873 832 880 958 1039 1049 1032 1045 1100 1232 1439 1938 1948 1866 2049 2246 2258 1900 1566 1654 1452 1142 1428 1500 2007 2695 2481 2248 1899 1502 1070 660 320
954 922 889 981 1079 1122 1121 1153 1229 1374 1510 1921 1945 1808 2085 2185 2271 1985 1482 1561 2012 1511 1662 1674 2318 2563 2753 2483 2099 1812 1371 628 485
950 1004 1027 995 1060 1101 1174 1176 1253 1417 1528 1872 1902 1753 1959 2021 2101 2239 2093 1955 2159 1922 1589 2068 2208 2747 2685 2620 2359 2137 1677 1022 713
855 806 1026 1056 1173 1111 1278 1283 1259 1383 1600 1899 1134 349 347 1079 1697 1877 2056 1860 1982 2253 2257 2217 2557 2783 2854 2690 2508 2307 2033 1514 909
1339 1365 981 921 1076 1138 1183 1333 1336 1513 1732 1357 431 284 11 4 506 1527 1450 1700 1770 1897 2218 2349 2416 2558 2903 2789 2672 2484 2207 1912 1239
1893 1537 1292 866 1164 1149 1231 1360 1487 1735 1801 1011 605 571 244 169 757 1247 1536 1666 1996 2050 2240 2439 2394 2457 2783 2836 2811 2661 2432 2172 1941
1986 1640 1313 1217 1253 1484 1544 1608 1782 1796 1778 1329 842 1045 916 734 829 1229 1690 1956 2067 2185 2463 2662 2782 2714 2557 2668 2822 2763 2597 2357 2085
2051 1772 1578 1515 1637 2008 2244 2123 2054 2032 1892 1824 1612 1510 1833 1408 2076 2369 2293 2358 2257 2355 2546 2660 2856 2822 2728 2633 2635 2660 2714 2492 2194
2211 1975 1975 2011 2053 2073 2181 2342 2349 2224 2260 2175 2019 1726 1753 2039 2198 2313 2390 2758 3050 3135 2954 3070 3124 3054 2985 2918 2731 2369 2150 2416 2369
2358 2602 2605 2531 2484 2442 2402 2454 2596 2470 2852 3016 2961 3167 3422 3610 3836 3995 4101 4026 3963 3900 3800 3765 3568 3558 3386 3234 3133 2544 1753 1567 1805
2433 2597 2695 2150 1692 1563 1476 1173 2035 2891 3127 3439 3633 3651 3581 3719 3747 3702 3746 3712 3659 3794 3916 3854 3813 3817 3676 3545 3534 2898 1449 965 17
2428 2565 2327 1870 1623 883 950 1749 2083 1790 1812 2139 2058 2127 2578 3058 2851 2534 2518 2469 2803 2969 3062 3354 3769 3691 3645 3330 3723 2646 964 861 459
2550 2315 1856 1796 902 712 1171 1574 1483 1264 1385 1384 1133 1132 1200 1381 1304 985 963 1356 1837 2411 2706 2464 3207 3277 3558 3524 3365 2216 897 739 603
2472 2113 2035 1761 621 568 1341 1719 1669 1573 1333 1276 1161 841 1010 879 613 403 935 1435 1836 1896 1925 2273 2529 2502 2570 2781 3030 2793 1021 720 661
2499 2303 1992 1933 1463 845 1390 2023 2103 1726 1853 1771 1584 1320 956 324 365 675 728 1411 1700 1891 2065 1944 1875 2045 1856 1157 2417 2219 967 464 491
2023 2155 2021 2126 2343 1933 1930 2520 2535 1934 2421 3459 2691 1981 1060 652 747 1062 1490 1468 1716 1459 1005 927 1000 810 806 668 770 1838 1070 644 391
1888 1584 1653 1866 2516 2681 2877 3300 3246 3016 3203 2962 1727 930 912 926 1156 1230 1301 963 396 241 135 159 220 416 504 591 747 1281 1371 521 187
1853 1820 2159 2166 2578 2540 2340 2354 2519 1693 1128 910 857 944 878 884 577 469 514 601 391 284 398 497 716 671 621 677 683 860 1314 1234 895
1683 1370 1373 1747 2017 1990 1487 1631 1267 1134 1387 1410 1336 1013 504 466 363 281 249 258 295 402 674 860 840 760 747 972 969 701 426 455 575
991 1263 1285 1252 1185 1206 1399 1426 1407 1247 1309 1206 1109 841 631 450 252 257 267 239 212 278 277 345 499 422 366 177 236 122 10 16 147

GFSFLT1_con_mlcape_339.txt.gz
CAPE
792 894 812 973 1152 1064 921 748 821 1119 1665 2387 2690 2609 2555 2786 2806 2492 2163 1763 1587 1388 1057 1544 2778 2980 2724 2427 2475 2172 1728 1050 602
721 819 730 928 1119 1104 1103 976 984 1358 1743 2485 2668 2497 2739 2775 2922 2747 1867 1527 1908 1642 1541 1546 2315 2623 2681 2457 2599 2372 2004 1295 794
729 768 823 908 964 1087 1167 1171 1274 1530 1807 2471 2551 2247 2441 2522 2628 2834 2637 2212 2004 1963 1782 1696 2206 2799 2766 2775 2737 2597 2282 1592 1223
764 829 896 904 970 1198 1260 1334 1468 1706 1909 2338 2400 2108 2233 2402 2387 2389 2728 2342 2339 2417 2416 2320 2345 2860 3042 2940 2784 2670 2609 2211 1626
926 893 929 935 1055 1232 1400 1493 1578 1728 1968 2144 2321 2056 1834 1702 2035 2187 2218 2331 2120 2263 2478 2627 2799 2868 3108 3162 3061 2872 2768 2479 1745
1559 1380 1130 1097 1216 1422 1527 1720 1889 2057 2193 2188 2361 1547 716 470 1301 1617 1771 1999 2159 2194 2400 2715 2770 3030 3036 3205 3203 3127 2894 2804 2456
1700 1595 1296 1070 1423 1532 1699 1978 2400 2461 2480 2397 1832 1344 1241 815 587 1051 1572 1944 2143 2310 2659 2942 3249 3295 3305 3149 3201 3188 2980 2813 2540
1693 1623 1355 1556 1559 1756 2035 2366 2667 2752 2765 2390 1986 1795 1787 1796 1923 2248 2224 2678 2767 2831 2879 2916 3124 3384 3391 3279 3108 2924 3094 2981 2852
1822 1765 1741 1727 2036 2423 2641 2821 2847 2803 2796 2756 2625 2478 2365 2533 2601 2778 3007 3099 3168 3393 3376 3413 3383 3316 3414 3402 3156 2694 2366 2643 2727
1884 1967 2118 2481 2735 2781 2866 2920 2989 3070 3216 3272 3248 3161 2909 3212 3274 3605 4032 4117 3962 3866 3887 3947 4013 4019 3860 3691 3641 3247 2481 1797 128
2196 2568 2680 2721 2679 2738 2520 1915 2253 3031 3280 3492 3747 3746 3538 3440 3319 3198 3174 3110 3106 3150 3339 3824 3843 4038 3811 3396 3232 3056 2797 1258 355
2561 2873 2762 2332 1955 1293 1298 1849 2404 2346 2152 2311 1986 1915 2048 1946 1690 1504 1379 1264 1469 1759 1963 2187 2387 2770 3410 3395 3718 3273 2059 1229 682
2678 2441 1987 1589 1254 1284 1632 1622 1806 1901 2108 2104 2014 1860 1615 1481 1144 838 809 984 1235 1476 1658 1399 1135 1483 1784 2445 3037 2390 1997 1588 1140
2589 2050 1688 1005 802 964 1244 1263 1393 1682 1555 1653 1545 1222 1376 1315 979 886 1123 1499 1635 1688 1719 1819 1878 1921 2091 2152 2551 2394 1638 1621 1953
2259 1975 1534 846 814 1217 1377 1564 1584 1443 1570 1769 1549 1522 1426 1094 1035 870 809 1380 1721 1867 1998 2048 1899 1996 1860 1264 1573 2213 1130 1178 1240
2478 2144 1784 1051 827 1185 1397 1862 2009 1982 2177 2464 2410 2038 1706 1104 1065 1135 1559 1837 2044 1792 1409 1226 522 2 14 200 259 1071 1383 847 629
2679 2323 2132 1991 1720 1214 1499 2331 2882 2798 2718 3797 3405 2902 1607 1316 1467 1628 1507 1378 917 743 628 415 229 2 19 158 258 280 1266 1201 465
2218 2082 2106 2022 2241 2352 3075 3327 3432 3245 3339 2888 2248 1543 1313 1217 962 1060 885 744 663 480 427 325 282 320 398 368 363 424 728 847 1123
2198 2640 2642 2581 2831 3167 3065 2884 2672 1944 1848 1823 1834 1559 1115 1012 763 623 398 237 163 70 48 235 376 494 636 694 728 530 257 149 329
2026 2119 2178 2302 2430 2194 1998 1991 2170 2009 1838 1638 1526 1246 946 614 254 69 45 6 28 16 15 17 55 134 297 170 356 131 14 1 2

GFSFLT1_con_mlcape_342.txt.gz
CAPE
984 932 958 980 1023 1086 1060 910 939 1460 2497 2737 2924 2669 2845 2839 2789 2988 2539 2190 1653 1830 1353 2592 2245 2044 2496 2421 2295 2411 1952 1611 1118
753 848 935 905 1041 1001 1112 954 1129 1541 2347 2644 2861 3009 3073 3154 3116 2991 2629 2214 1800 1510 1923 1988 1984 2492 2593 2475 2582 2396 2310 1537 1211
514 672 853 934 1169 1122 1101 1014 1165 1314 2304 2489 2871 2969 3255 3228 3433 3283 2998 2889 2226 2168 2228 1796 2621 2831 2753 2575 2760 2558 2452 2236 1381
432 599 680 814 1115 1208 1276 1221 1183 1484 2163 2605 3083 2944 2967 2960 3211 3389 3284 2790 2742 2237 2411 2445 2452 2658 3011 3045 2789 2646 2562 2272 2153
423 434 497 753 934 1189 1394 1448 1566 1793 1936 2263 2955 2868 2861 2805 2896 2824 3048 3002 2918 2733 2714 3030 2791 3141 3198 3257 3360 3047 2718 2692 2187
844 901 656 722 999 1343 1589 1728 1877 1633 2243 2292 2697 2765 2473 2456 2586 2637 2650 2866 2479 2788 2855 2901 3167 3236 3349 3578 3655 3534 3228 2901 2612
1238 1205 1017 951 1170 1536 1799 2409 2167 2460 2461 2591 2768 2624 1585 1137 1208 1349 1671 1613 2084 2989 2774 3009 3493 3431 3548 3445 3477 3574 3444 3221 2916
1527 1457 1118 1110 1691 2081 2629 2701 2925 2980 2871 2853 2668 1955 1985 1588 1500 1501 2005 2474 2495 2756 2960 3417 3422 3477 3790 3617 3649 3305 3342 3415 3032
1564 1392 1378 1810 2033 2200 2694 2903 2967 3248 3230 2906 2457 2076 2385 2616 2364 3041 3050 3279 3414 3405 3402 3342 3440 3415 3471 3610 3708 3302 2867 2747 419
1637 1620 1892 2240 2303 2438 2831 3079 3208 3110 3370 3286 3115 3049 2947 3063 3177 3172 3368 3620 3780 3495 3461 3435 3408 3330 3208 3137 3006 2906 2353 1144 0
1687 1939 2631 2740 2833 2989 3129 3166 3440 3640 3678 3751 3934 3911 3958 4171 4114 3906 3649 3446 3220 3127 3340 3514 3684 3650 3694 3458 3696 3313 2445 1537 543
1986 2633 3022 2937 2928 2956 2713 2985 3305 3478 3698 4095 4146 3490 3247 3340 3312 3071 2396 1728 1556 1687 2076 2272 2242 2218 2126 2825 3382 3182 2259 1684 1080
2569 2818 2649 2654 2156 1782 1994 2542 2769 2305 2628 1973 1708 2350 2583 2368 1856 1407 1299 1231 1380 1592 1882 1665 2152 793 955 801 1723 1859 1768 1633 1610
2815 2648 2223 1586 1479 1219 2169 1958 2262 2093 2330 2694 2889 2700 2515 1944 1507 1155 1271 1654 1979 1967 1952 1906 1661 1674 1850 1911 1907 1894 1714 1439 1705
2281 2060 1508 1299 1079 1436 1828 1864 2076 2217 2137 2304 2145 1736 1787 1450 1242 1275 1816 1757 1920 1921 1898 1934 1710 1792 1610 1915 1565 1668 1262 1279 1054
2132 1878 1044 991 1359 1615 1648 2034 1870 2605 2673 2315 1998 1999 1928 1521 1296 1448 1725 1877 1842 1900 1861 1768 1321 520 283 210 433 1373 890 559 682
1983 1710 905 1183 1417 1800 1875 2367 2493 3040 2818 3436 3043 2849 2761 2031 1704 1798 1894 1962 1519 964 1054 424 423 372 200 336 528 851 954 1181 791
2214 1984 1673 1084 1487 1823 2766 3181 3466 3511 4052 4084 3776 3428 2514 1910 1744 1621 1708 1573 1067 560 429 138 38 96 247 411 539 512 99 148 378
2536 2381 2267 2397 3107 3622 3614 3505 3023 2563 2319 2236 2278 2243 2022 1648 1042 958 677 351 313 157 0 0 0 11 97 534 532 240 20 0 0
2694 3003 3117 3192 3045 3065 2861 2535 2615 2462 2257 2090 1970 1726 1348 918 403 291 167 92 228 24 4 10 2 0 0 0 0 0 0 0 0

GFSFLT1_con_mlcape_345.txt.gz
CAPE
762 753 761 779 747 987 907 1282 1519 1855 1811 1765 1994 2229 2048 1979 2024 2316 2345 1935 1826 1972 1938 1853 1863 2107 1794 2092 2042 2036 1491 1200 740
407 877 914 768 747 953 1015 1147 1457 1893 1910 1936 2090 2047 2578 2550 2279 2285 2421 2134 1918 1794 2157 1775 994 1252 1826 2237 2193 2073 1986 1486 1190
500 505 1013 839 832 1044 995 1106 1420 2019 2028 2011 2205 2259 2370 2795 2761 2558 2567 2831 2389 1767 1971 1580 1040 1449 1873 2436 2526 2286 2031 1758 1324
140 257 903 952 974 1163 953 1020 1612 1943 2206 2267 2345 2640 2845 2894 3112 3060 2735 2807 2825 1966 2425 2354 1994 2281 2396 2455 2489 2357 2096 1868 1811
554 500 315 545 1033 1080 981 1024 1487 1809 2110 2224 2396 2677 2981 2956 3021 3052 2190 2611 2649 2692 2152 2180 2333 2805 2639 2683 2888 2406 2085 1953 1858
167 116 28 113 478 1035 1021 1010 1267 1823 1997 2255 2666 2798 2946 2887 2869 2723 1532 2723 2491 2875 2475 2326 2419 2525 2692 2656 2536 2988 2734 2347 2141
381 90 153 141 263 1066 1170 1242 1408 1717 1994 2452 2724 2652 2502 2784 2819 2696 2699 2800 2695 2291 2664 2791 2592 2630 2742 2810 2882 2880 2841 2915 2328
1092 747 449 358 903 1501 1587 1711 1903 2078 2400 2685 2467 2242 1963 1527 1194 1044 1276 1800 1553 1723 2701 2926 2815 2912 3102 3287 3207 3102 2962 2780 648
1110 1259 1531 1896 2019 2187 2180 2119 2219 2546 2673 2557 2322 2208 1901 1819 1533 1407 1829 2436 2797 2572 2578 2796 2816 2735 2974 2969 2980 2894 2007 524 1
1217 1525 1815 2014 2253 2471 2499 2712 2758 2576 2604 2486 2240 2234 2308 1989 2032 2371 2472 2634 2981 3394 3067 3253 3098 2916 2869 2719 2645 2706 1853 741 502
1419 1874 1808 2131 2511 2642 2794 2765 2962 2930 2889 2687 2537 2224 2323 2750 2876 2964 3179 3167 3032 2967 3247 3393 3424 3272 3037 2835 2682 2365 2056 1775 778
1818 1880 2022 2168 2512 2684 2756 2795 2884 2676 2561 2642 2815 3079 3231 3404 3546 3319 3080 3080 2735 1967 1652 1461 1138 1524 1595 1019 1370 2224 1565 1151 761
1119 2497 2311 2668 2864 2972 2917 2957 2939 2434 2551 2797 3212 3418 3311 3280 3174 2429 1543 1157 1092 1232 1307 916 1606 1067 1240 1212 1119 1305 1149 836 878
1389 1190 1655 2669 2722 2882 2855 2908 2701 2083 2812 2713 2547 2898 2461 1660 1196 876 821 909 1538 1322 974 1117 1269 1260 1238 946 600 651 654 1091 1215
0 274 288 1798 2115 1948 2183 2329 2254 2197 1969 2487 2611 2130 1507 978 826 951 1424 1738 1288 913 1188 1183 1158 1400 506 23 232 247 392 471 964
0 0 363 841 1199 1477 1496 1360 1566 1718 2178 2232 1714 1504 1291 1173 1007 1178 1187 957 1246 1290 1212 1310 671 434 44 27 298 344 195 174 205
448 496 852 1059 1233 1361 1222 1299 2138 2481 2493 1800 1654 1691 1522 1428 1427 1231 1390 1486 1538 1299 1107 112 0 0 0 77 217 451 47 124 251
692 953 1193 1327 1328 1412 1953 2837 2895 2914 2811 2733 2674 2763 2253 1906 1768 1750 1508 1379 1087 253 0 0 0 0 33 163 42 0 0 0 0
1170 921 958 1050 616 696 2214 2069 2185 2351 2345 2426 2249 2239 1573 1072 790 397 262 227 71 0 0 0 0 0 0 0 0 0 0 0 0
2068 1072 913 342 83 1176 1029 32 1714 1744 1839 1799 1635 1309 905 373 267 108 90 10 0 0 0 0 0 0 0 0 0 0 0 0 0